Location: Colossi of Memnon
(25.7167°N, 32.6167°E)
Time: 04:33:14
(UTC+00:00)

Cosmos 2251 Rocket - Pass Details

Date: 05 March 2021
Orbit: 764 x 792 km, 74.0° (Epoch: 10 April)

Event Time Altitude Azimuth Distance (km) Brightness Sun altitude
Exits shadow 02:43:18 38° 287° (WNW) 1,172 4.0 -20.1°
Maximum altitude 02:43:21 38° 288° (WNW) 1,172 4.0 -20.1°
Drops below altitude 10° 02:48:19 10° 357° (N) 2,346 6.0 -19.0°
Sets 02:50:52 0° 5° (N) 3,281 6.9 -18.4°
